Location: Tamazert
(32.6352°N, 5.2072°W)
Time: 16:26:30
(UTC+00:00)

Cosmos 2219 Rocket - Pass Details

Date: 22 May 2022
Orbit: 827 x 847 km, 71.0° (Epoch: 28 June)

Event Time Altitude Azimuth Distance (km) Brightness Sun altitude
Exits shadow 01:48:46 19° 313° (NW) 1,853 4.1 -32.7°
Drops below altitude 10° 01:51:56 10° 347° (NNW) 2,434 5.1 -32.4°
Sets 01:55:03 0° 4° (N) 3,372 6.3 -32.1°
